Regional Weather Roundup
Issued by NWS

Home | Current Version | Previous Version | Graphics & Text | Print | Product List | Glossary On
Versions: 1 2 3 4 5 6 7 8 9 10 11 12 13 14 15 16 17 18 19 20 21 22 23 24 25 26 27 28 29 30 31 32 33 34 35 36 37 38 39 40 41 42 43 44 45 46 47 48 49 50
000
ASUS43 KFSD 260510
RWRSD

WEATHER ROUNDUP FOR SOUTH DAKOTA
NATIONAL WEATHER SERVICE SIOUX FALLS SD
1200 AM CDT WED JUL 26 2017

NOTE: "FAIR" INDICATES FEW OR NO CLOUDS BELOW 12,000 FEET WITH NO
SIGNIFICANT WEATHER AND/OR OBSTRUCTIONS TO VISIBILITY.


SDZ001>005-009-010-012>017-260600-
NORTHWEST AND NORTH CENTRAL SOUTH DAKOTA

CITY           SKY/WX    TMP DP  RH WIND       PRES   REMARKS
BUFFALO          N/A     72  52  49 S5        30.06R
FAITH            N/A     72  54  53 CALM      30.09R
MOBRIDGE       CLOUDY    75  63  66 NE8       30.01
$$

SDZ012>016-024>037-041>051-057-063-072>074-260600-
SOUTHWEST AND SOUTH CENTRAL SOUTH DAKOTA

CITY           SKY/WX    TMP DP  RH WIND       PRES   REMARKS
RAPID CTY ARPT CLOUDY    72  54  53 N12       30.11F
PIERRE         CLOUDY    75  64  68 NE13      29.97S
CUSTER         CLOUDY    65  55  70 MISG      30.23F
PHILIP         PTCLDY    76  62  62 NE12      30.01S
PINE RIDGE     CLOUDY    76  65  68 NE17G25   30.06R
SPEARFISH      CLOUDY    66  57  72 CALM      30.17F
WINNER         FAIR      72  67  84 E7        29.98S
$$

SDZ004>011-016>023-039-040-260600-
NORTHEAST SOUTH DAKOTA

CITY           SKY/WX    TMP DP  RH WIND       PRES   REMARKS
ABERDEEN       CLOUDY    74  71  91 SE5       30.02R
WATERTOWN      CLOUDY    71  67  87 NW3       30.02R
BROOKINGS      RAIN      71  69  93 W6        30.01R
SISSETON         N/A     73  72  96 S7        29.99R
$$

SDZ017-020-022-023-036>040-048>070-260600-
SOUTHEAST SOUTH DAKOTA

CITY           SKY/WX    TMP DP  RH WIND       PRES   REMARKS
SIOUX FALLS    RAIN      73  73 100 N12       30.04R
HURON          LGT RAIN  71  70  96 S10       29.96F
CHAMBERLAIN    CLOUDY    71  71  99 S8        29.98R
MITCHELL       LGT RAIN  71  70  96 SE12      30.01F
YANKTON        CLOUDY    73  70  90 NW14      30.00S
$$

ABBREVIATIONS USED IN REMARKS
   TC - TEMPERATURE IN CELSIUS
  WCI - WIND CHILL INDEX
   HX - HEAT INDEX
  VSB - VISIBILITY




USA.gov is the U.S. government's official web portal to all federal, state and local government web resources and services.